NW5W-12 Weather Reports


Display with metric or nautical units.
time (UTC)temp
F
wind
direction
speed
MPH
gust
MPH
rain 1hr
in
rain 24hr
in
rain mn
in
humidity
%
barometer
mb
20260505070042 46 184 8.0 13.0 0.00 0.00 0.00 81 1011.9
20260505065542 47 154 6.0 13.0 0.00 0.00 0.00 80 1012.0
20260505065042 47 154 5.0 13.0 0.00 0.00 0.00 78 1012.1
20260505064542 47 157 8.0 13.0 0.00 0.00 0.00 78 1012.1
20260505064042 47 154 8.0 15.0 0.00 0.00 0.00 77 1012.1
20260505063542 47 178 9.0 15.0 0.00 0.00 0.00 76 1012.1
20260505063042 47 168 6.0 14.0 0.00 0.00 0.00 76 1012.1
20260505062542 47 161 10.0 15.0 0.00 0.00 0.00 77 1012.1
20260505062042 47 155 6.0 15.0 0.00 0.00 0.00 77 1012.1
20260505061542 47 176 6.0 14.0 0.00 0.00 0.00 78 1012.2
20260505061042 47 162 4.0 14.0 0.00 0.00 0.00 78 1012.2
20260505060542 47 168 7.0 14.0 0.00 0.00 0.00 78 1012.2
20260505060042 47 179 5.0 14.0 0.00 0.00 0.00 79 1012.2
20260505055542 47 174 8.0 14.0 0.00 0.00 0.00 79 1012.1
20260505055042 47 157 7.0 14.0 0.00 0.00 0.00 78 1012.2
20260505054542 47 151 5.0 14.0 0.00 0.00 0.00 78 1012.2
20260505054042 48 159 9.0 14.0 0.00 0.00 0.00 78 1012.2
20260505053542 48 173 6.0 19.0 0.00 0.00 0.00 77 1012.2
20260505053042 48 162 8.0 19.0 0.00 0.00 0.00 75 1012.1
20260505052542 48 191 10.0 17.0 0.00 0.00 0.00 76 1012.1
20260505052042 48 186 7.0 17.0 0.00 0.00 0.00 76 1012.1
20260505051542 48 175 8.0 17.0 0.00 0.00 0.00 78 1012.1
20260505051042 48 162 9.0 20.0 0.00 0.00 0.00 77 1012.1
20260505050542 48 159 7.0 21.0 0.00 0.00 0.00 79 1012.1
20260505041542 49 171 12.0 18.0 0.00 0.00 0.00 77 1011.9
20260505041042 50 166 9.0 18.0 0.00 0.00 0.00 74 1011.8
20260505040542 51 171 9.0 15.0 0.00 0.00 0.00 70 1011.6
20260505040042 51 162 9.0 18.0 0.00 0.00 0.00 68 1011.5
20260505035542 52 145 7.0 19.0 0.00 0.00 0.00 65 1011.5
20260505035042 52 165 12.0 19.0 0.00 0.00 0.00 61 1011.4
20260505034542 53 204 10.0 19.0 0.00 0.00 0.00 58 1011.2
20260505034042 53 194 14.0 20.0 0.00 0.00 0.00 57 1011.1
20260505033542 53 204 16.0 21.0 0.00 0.00 0.00 55 1011.1
20260505033042 53 212 16.0 21.0 0.00 0.00 0.00 57 1011.1
20260505032542 54 208 15.0 20.0 0.00 0.00 0.00 57 1011.0
20260505032042 54 204 11.0 17.0 0.00 0.00 0.00 51 1011.0
20260505031542 55 211 11.0 17.0 0.00 0.00 0.00 48 1011.0
20260505031042 55 210 8.0 14.0 0.00 0.00 0.00 45 1010.9
20260505030542 54 201 6.0 10.0 0.00 0.00 0.00 47 1010.9
20260505030042 55 196 5.0 9.0 0.00 0.00 0.00 48 1010.9
20260505025542 55 178 5.0 9.0 0.00 0.00 0.00 47 1010.9
20260505025042 55 185 3.0 8.0 0.00 0.00 0.00 47 1010.9
20260505024542 55 163 4.0 8.0 0.00 0.00 0.00 47 1010.9
20260505024042 55 165 3.0 8.0 0.00 0.00 0.00 47 1010.9
20260505023542 55 171 5.0 7.0 0.00 0.00 0.00 47 1010.8
20260505023042 55 175 3.0 7.0 0.00 0.00 0.00 47 1010.7
20260505022542 56 197 5.0 7.0 0.00 0.00 0.00 46 1010.7
20260505022042 56 197 3.0 8.0 0.00 0.00 0.00 46 1010.7
20260505021542 56 202 4.0 8.0 0.00 0.00 0.00 45 1010.7
20260505021042 56 204 3.0 10.0 0.00 0.00 0.00 45 1010.7
20260505020542 57 201 4.0 10.0 0.00 0.00 0.00 44 1010.6
20260505020042 57 200 6.0 10.0 0.00 0.00 0.00 44 1010.6
20260505015542 57 197 4.0 6.0 0.00 0.00 0.00 44 1010.7
20260505015042 57 191 3.0 6.0 0.00 0.00 0.00 45 1010.7
20260505014043 57 189 3.0 8.0 0.00 0.00 0.00 44 1010.7
20260505013542 57 191 5.0 9.0 0.00 0.00 0.00 44 1010.7
20260505013042 57 197 3.0 9.0 0.00 0.00 0.00 44 1010.7
20260505012542 57 186 5.0 10.0 0.00 0.00 0.00 43 1010.7
20260505012042 57 186 6.0 10.0 0.00 0.00 0.00 44 1010.8
20260505011542 58 179 6.0 12.0 0.00 0.00 0.00 43 1010.8
20260505011042 58 162 5.0 12.0 0.00 0.00 0.00 43 1010.8
20260505010542 58 184 4.0 12.0 0.00 0.00 0.00 43 1010.9
20260505010042 59 177 6.0 12.0 0.00 0.00 0.00 42 1010.9
20260505005542 60 151 5.0 11.0 0.00 0.00 0.00 39 1010.9
20260505005042 60 164 6.0 8.0 0.00 0.00 0.00 36 1010.9
20260505004542 61 176 3.0 6.0 0.00 0.00 0.00 37 1010.9
20260505004042 61 168 1.0 5.0 0.00 0.00 0.00 34 1010.9
20260505003542 61 16 0.0 3.0 0.00 0.00 0.00 36 1010.9
20260505003042 61 213 0.0 5.0 0.00 0.00 0.00 35 1010.9
20260505002542 61 251 2.0 5.0 0.00 0.00 0.00 34 1011.0
20260505002042 61 242 2.0 5.0 0.00 0.00 0.00 36 1011.0
20260505001542 62 317 1.0 5.0 0.00 0.00 0.00 35 1011.0
20260505001042 61 273 2.0 6.0 0.00 0.00 0.00 37 1011.0
20260505000542 61 343 1.0 10.0 0.00 0.00 0.00 34 1011.0
20260505000042 61 333 7.0 10.0 0.00 0.00 0.00 34 1011.0
20260504235542 61 321 2.0 9.0 0.00 0.00 0.00 36 1011.1
20260504235042 61 326 3.0 9.0 0.00 0.00 0.00 34 1011.1
20260504234542 62 340 3.0 8.0 0.00 0.00 0.00 34 1011.0
20260504234042 62 349 2.0 9.0 0.00 0.00 0.00 32 1011.1
20260504233542 63 321 4.0 10.0 0.00 0.00 0.00 32 1011.0
20260504233042 63 315 5.0 10.0 0.00 0.00 0.00 33 1011.0
20260504232542 64 331 6.0 13.0 0.00 0.00 0.00 31 1011.0
20260504232042 65 325 9.0 13.0 0.00 0.00 0.00 29 1011.0
20260504231542 65 313 5.0 10.0 0.00 0.00 0.00 31 1011.0
20260504231042 65 339 6.0 10.0 0.00 0.00 0.00 30 1011.0
20260504230542 64 262 1.0 7.0 0.00 0.00 0.00 34 1011.1
20260504230042 64 15 1.0 7.0 0.00 0.00 0.00 34 1011.1
20260504225542 63 353 4.0 13.0 0.00 0.00 0.00 32 1011.1
20260504225042 64 329 5.0 13.0 0.00 0.00 0.00 32 1011.1
20260504224542 64 332 3.0 12.0 0.00 0.00 0.00 32 1011.1
20260504224042 63 325 8.0 12.0 0.00 0.00 0.00 35 1011.1
20260504223542 63 345 6.0 12.0 0.00 0.00 0.00 32 1011.2
20260504223042 62 341 9.0 12.0 0.00 0.00 0.00 36 1011.2
20260504222542 61 343 6.0 13.0 0.00 0.00 0.00 35 1011.2
20260504222042 62 349 9.0 14.0 0.00 0.00 0.00 34 1011.2
20260504221542 61 348 7.0 14.0 0.00 0.00 0.00 36 1011.2
20260504221042 61 28 6.0 18.0 0.00 0.00 0.00 37 1011.2
20260504220542 62 339 8.0 18.0 0.00 0.00 0.00 36 1011.2
20260504220042 63 332 8.0 18.0 0.00 0.00 0.00 37 1011.2
20260504215542 64 327 5.0 13.0 0.00 0.00 0.00 36 1011.3
20260504215042 63 356 5.0 8.0 0.00 0.00 0.00 34 1011.4
20260504214542 63 325 5.0 8.0 0.00 0.00 0.00 34 1011.5
20260504214042 63 340 1.0 9.0 0.00 0.00 0.00 33 1011.6
20260504213542 63 282 3.0 9.0 0.00 0.00 0.00 34 1011.6
20260504213042 64 252 2.0 6.0 0.00 0.00 0.00 33 1011.6
20260504212542 64 311 3.0 9.0 0.00 0.00 0.00 36 1011.6
20260504212042 64 255 1.0 13.0 0.00 0.00 0.00 34 1011.5
20260504211542 64 219 4.0 13.0 0.00 0.00 0.00 33 1011.5
20260504211042 64 300 6.0 11.0 0.00 0.00 0.00 33 1011.4
20260504210542 64 339 1.0 11.0 0.00 0.00 0.00 33 1011.6
20260504205542 67 299 2.0 10.0 0.00 0.00 0.00 29 1011.6
20260504205042 67 329 2.0 9.0 0.00 0.00 0.00 28 1011.6
20260504204542 66 214 2.0 13.0 0.00 0.00 0.00 28 1011.6
20260504204042 67 214 9.0 13.0 0.00 0.00 0.00 28 1011.6
20260504203542 67 154 1.0 5.0 0.00 0.00 0.00 27 1011.6
20260504203042 68 75 2.0 5.0 0.00 0.00 0.00 26 1011.6
20260504202542 69 198 2.0 8.0 0.00 0.00 0.00 25 1011.7
20260504202042 70 297 1.0 8.0 0.00 0.00 0.00 26 1011.7
20260504201542 71 265 3.0 8.0 0.00 0.00 0.00 28 1011.7
20260504201042 71 189 5.0 10.0 0.00 0.00 0.00 27 1011.7
20260504200542 70 210 6.0 11.0 0.00 0.00 0.00 28 1011.7
20260504200042 70 189 5.0 11.0 0.00 0.00 0.00 26 1011.7
20260504195542 69 146 1.0 10.0 0.00 0.00 0.00 28 1011.8
20260504195042 69 190 6.0 13.0 0.00 0.00 0.00 29 1011.9
20260504194542 69 203 6.0 13.0 0.00 0.00 0.00 29 1011.9
20260504194042 69 206 6.0 13.0 0.00 0.00 0.00 30 1011.8
20260504193542 68 142 5.0 11.0 0.00 0.00 0.00 29 1012.0
20260504193042 68 157 4.0 13.0 0.00 0.00 0.00 30 1012.0
20260504192542 68 216 5.0 13.0 0.00 0.00 0.00 31 1012.0
20260504192042 68 145 3.0 12.0 0.00 0.00 0.00 29 1012.0
20260504191542 68 177 7.0 12.0 0.00 0.00 0.00 31 1012.0
20260504191042 68 129 6.0 12.0 0.00 0.00 0.00 31 1012.1
20260504190542 68 227 4.0 11.0 0.00 0.00 0.00 30 1012.2
20260504190042 67 173 6.0 11.0 0.00 0.00 0.00 32 1012.3
20260504185542 67 189 4.0 12.0 0.00 0.00 0.00 32 1012.3
20260504185042 67 218 7.0 12.0 0.00 0.00 0.00 30 1012.4
20260504184542 67 155 6.0 14.0 0.00 0.00 0.00 31 1012.4
20260504184042 67 201 3.0 14.0 0.00 0.00 0.00 31 1012.5
20260504183542 67 171 3.0 11.0 0.00 0.00 0.00 32 1012.5
20260504183042 66 130 5.0 14.0 0.00 0.00 0.00 31 1012.6
20260504182542 67 182 8.0 14.0 0.00 0.00 0.00 33 1012.7
20260504182042 66 154 6.0 13.0 0.00 0.00 0.00 31 1012.7
20260504181542 66 184 7.0 13.0 0.00 0.00 0.00 31 1012.7
20260504181042 66 220 5.0 13.0 0.00 0.00 0.00 31 1012.7
20260504180542 66 167 6.0 14.0 0.00 0.00 0.00 31 1012.8
20260504180042 66 178 4.0 14.0 0.00 0.00 0.00 31 1012.8
20260504175542 66 188 3.0 10.0 0.00 0.00 0.00 32 1012.8
20260504175042 66 164 6.0 11.0 0.00 0.00 0.00 32 1012.8
20260504174542 65 180 6.0 15.0 0.00 0.00 0.00 33 1012.9
20260504174042 65 150 5.0 15.0 0.00 0.00 0.00 35 1012.9
20260504173542 65 177 8.0 11.0 0.00 0.00 0.00 33 1013.0
20260504173042 65 209 5.0 11.0 0.00 0.00 0.00 34 1013.0
20260504172542 64 169 6.0 11.0 0.00 0.00 0.00 35 1013.0
20260504172042 63 154 4.0 11.0 0.00 0.00 0.00 34 1013.1
20260504171542 63 145 6.0 12.0 0.00 0.00 0.00 34 1013.1
20260504171042 63 194 5.0 12.0 0.00 0.00 0.00 35 1013.1
20260504170542 63 196 4.0 18.0 0.00 0.00 0.00 37 1013.1
20260504151042 55 165 3.0 11.0 0.00 0.00 0.00 50 1013.3
20260504150542 54 172 6.0 9.0 0.00 0.00 0.00 51 1013.3
20260504141042 52 188 6.0 10.0 0.00 0.00 0.00 50 1013.3
20260504140542 52 183 4.0 10.0 0.00 0.00 0.00 49 1013.3
20260504130350 51 186 4.0 9.0 0.00 0.00 0.00 49 1013.2
20260504110350 51 176 6.0 15.0 0.00 0.00 0.00 50 1013.2
20260504100351 52 188 7.0 14.0 0.00 0.00 0.00 42 1013.3
20260504081850 51 163 5.0 14.0 0.00 0.00 0.00 40 1013.2
20260504081351 51 161 7.0 11.0 0.00 0.00 0.00 41 1013.2
20260504080850 51 167 6.0 11.0 0.00 0.00 0.00 42 1013.3
20260504080350 51 183 6.0 11.0 0.00 0.00 0.00 43 1013.3